Home > Time Zones > World Clock > Weather > Iran > Ahvaz > Past weeks

Flag for Iran Weather past 2 weeks in Ahvaz, Iran

Now
52 °F

Clear.


Feels Like: 48 °F
Forecast: 46 / 77 °F
Wind: 12 mph from Northwest

Location: Ahwaz

Current Time: Feb 2, 2015 at 5:32:56 AM

Latest Report: Feb 2, 2015 at 4:30 AM


Visibility: 10 mi

Pressure: 30.04 "Hg

Humidity: 67%

Dew point: 41 °F

Location of AhvazLocation

Historic Weather in Ahvaz — Graph

°F

Ahvaz temperature yesterday

Maximum temperature yesterday: 72 °F (at 2:30 PM)
Minimum temperature yesterday: 48 °F (at 5:30 AM)
Average temperature yesterday: 60 °F

Past Weeks' High & Low Weather Summary

 TemperatureHumidityPressure
High77 °F (Jan 29, 1:00 PM)94% (Jan 31, 5:30 AM)30.27 "Hg (Jan 31, 5:30 AM)
Low41 °F (Jan 20, 6:30 AM)22% (Jan 29, 2:30 PM)29.89 "Hg (Jan 29, 4:30 AM)
Average60 °F56%30.08 "Hg
* Reported Jan 18 4:30 AM — Feb 2 4:30 AM, Ahvaz, Weather by CustomWeather, © 2014

Note: Actual official high and low records may vary slightly from our data, if they occured in-between our weather recording intervals... More about our weather records

Advertising

Ahvaz weather history for previous 24 hours

 ConditionsComfort  
Time TempWeatherWind HumidityBarometerVisibility
4:30 AM
Feb 2
52 °FClear.12 mph67%30.04 "Hg10 mi
3:30 AM54 °FClear.9 mph54%30.04 "Hg10 mi
2:30 AM54 °FClear.9 mph58%30.04 "Hg10 mi
1:30 AM55 °FClear.9 mph55%30.04 "Hg10 mi
12:30 AM57 °FClear.9 mph51%30.04 "Hg10 mi
12:00 AM57 °FClear.7 mph51%30.04 "Hg10 mi
11:30 PM
Feb 1
59 °FClear.7 mph48%30.04 "Hg10 mi
11:00 PM59 °FClear.7 mph48%30.07 "Hg10 mi
10:30 PM61 °FClear.12 mph45%30.07 "Hg10 mi
10:00 PM61 °FClear.5 mph48%30.07 "Hg10 mi
9:30 PM63 °FClear.2 mph42%30.07 "Hg10 mi
9:00 PM61 °FClear.9 mph48%30.07 "Hg10 mi
8:30 PM63 °FClear.9 mph45%30.07 "Hg10 mi
8:00 PM63 °FClear.7 mph45%30.07 "Hg10 mi
7:30 PM64 °FClear.7 mph43%30.07 "Hg10 mi
7:00 PM64 °FClear.5 mph46%30.04 "Hg10 mi
6:30 PM66 °FClear.No wind43%30.04 "Hg10 mi
6:00 PM68 °FSunny.5 mph38%30.04 "Hg10 mi
5:30 PM70 °FSunny.5 mph35%30.04 "Hg10 mi
5:00 PM70 °FSunny.9 mph29%30.04 "Hg10 mi
4:30 PM72 °FSunny.5 mph27%30.04 "Hg10 mi
4:00 PM72 °FSunny.5 mph27%30.04 "Hg10 mi
3:30 PM72 °FSunny.2 mph27%30.04 "Hg10 mi
2:30 PM72 °FSunny.7 mph31%30.07 "Hg10 mi
2:00 PM70 °FSunny.5 mph40%30.07 "Hg10 mi
1:30 PM68 °FSunny.9 mph43%30.07 "Hg10 mi
12:00 PM64 °FSunny.7 mph52%30.09 "Hg10 mi
11:00 AM61 °FSunny.5 mph55%30.12 "Hg10 mi
10:00 AM54 °FSunny.7 mph72%30.15 "Hg10 mi
9:30 AM54 °FSunny.5 mph72%30.15 "Hg10 mi
9:00 AM52 °FSunny.5 mph67%30.15 "Hg10 mi
8:30 AM50 °FSunny.5 mph76%30.12 "Hg10 mi
8:00 AM50 °FSunny.7 mph67%30.12 "Hg10 mi
7:30 AM48 °FClear.9 mph71%30.12 "Hg10 mi
6:30 AM48 °FClear.5 mph76%30.09 "Hg10 mi
5:30 AM48 °FClear.No wind76%30.09 "Hg10 mi
Weather by CustomWeather, © 2014

See weather overviewHow to use our weather pages